Tracking 30685 objects as of 17-Jun-2025
HD Live streaming from Space Station
objects crossing your sky now

NOAA 16 DEB

Track NOAA 16 DEB now!
10-day predictions


NORAD ID: 41511
Int'l Code: 2000-055MK
Perigee: 811.2 km
Apogee: 850.7 km
Inclination: 98.7 °
Period: 101.4 minutes
Semi major axis: 7201 km
RCS: Unknown
Launch date: September 21, 2000
Source: United States (US)
Launch site: AIR FORCE WESTERN TEST RANGE (AFWTR)

Note: This is SATELLITE DEBRIS
Your satellite tracking list
Your tracking list is empty




NASA's NSSDC Master Catalog

Two Line Element Set (TLE):
1 41511U 00055MK  25167.13150808  .00002764  00000-0  13033-2 0  9990
2 41511  98.7076 223.7008 0027437  93.1166 267.3151 14.20450280475919
Source of the keplerian elements: AFSPC